Regional Weather Roundup
Issued by NWS

Home | Current Version | Previous Version | Text Only | Print | Product List | Glossary On
Versions: 1 2 3 4 5 6 7 8 9 10 11 12 13 14 15 16 17 18 19 20 21 22 23 24 25 26 27
000
ASUS45 KBOI 290310
RWRID

IDAHO REGIONAL WEATHER ROUNDUP
NATIONAL WEATHER SERVICE BOISE ID
900 PM MDT TUE MAR 28 2017

NOTE: "FAIR" INDICATES FEW OR NO CLOUDS BELOW 12000 FEET
WITH NO SIGNIFICANT WEATHER AND/OR OBSTRUCTIONS TO VISIBILITY

IDZ012-014-290400-
SOUTHWEST IDAHO


CITY           SKY/WX    TMP DP  RH WIND       PRES   REMARKS
BOISE          PTCLDY    49  30  48 N3        30.25S
CALDWELL       PTCLDY    49  33  54 N3        30.26S
MOUNTAIN HOME  PTCLDY    49  33  56 N10       30.25R
$$

IDZ016-017-290400-
SOUTHCENTRAL IDAHO


CITY           SKY/WX    TMP DP  RH WIND       PRES   REMARKS
BURLEY         MOCLDY    44  28  53 W10       30.23R
JEROME         MOCLDY    44  29  55 SW12      30.24R
TWIN FALLS     MOCLDY    39  29  67 SW7       30.25R WCI  34
$$

IDZ019>023-290400-
SOUTHEAST IDAHO


CITY           SKY/WX    TMP DP  RH WIND       PRES   REMARKS
IDAHO FALLS    CLOUDY    44  29  55 S13       30.20R
POCATELLO      CLOUDY    43  27  53 SW14      30.23R
REXBURG        CLOUDY    43  29  57 S6        30.18R
$$

IDZ006-010-011-018-031-032-290400-
CENTRAL IDAHO MOUNTAINS


CITY           SKY/WX    TMP DP  RH WIND       PRES   REMARKS
MCCALL         CLOUDY    38  27  64 E3        30.22S
HAILEY         CLEAR     39  30  70 CALM      30.21R
STANLEY          N/A     31  23  72 CALM      30.22S
SALMON         CLOUDY    46  23  39 CALM      30.15S
CHALLIS        CLOUDY    45  20  36 CALM      30.16R
$$

IDZ002-004-006-007-026-290400-
NORTHERN IDAHO


CITY           SKY/WX    TMP DP  RH WIND       PRES   REMARKS
LEWISTON       CLOUDY    47  42  83 SE9       30.25F
LOWELL           N/A     45  42  89 CALM      30.28R
COEUR D`ALENE  LGT RAIN  41  39  93 SE9       30.21S
MULLAN PASS    LGT SNOW  28  28 100 SW7G20    30.13S FOG     WCI  21
$$




USA.gov is the U.S. government's official web portal to all federal, state and local government web resources and services.